• In India
  • List of Countries
  • For 7 days
  • Water Temperature
  • Satellite Maps
  • Weather Map
  • Weather Widgets
  • user-avatar
    Login

    Hourly Weather Korçe

    Today, 24 June, Sunday

    Time Temperature Precipitation Wind Pressure Humidity
    00:00 +10°C° 0 mm 2 mps 666 mmHg 79%
    01:00 +10°C° 0 mm 2 mps 666 mmHg 79%
    02:00 +10°C° 0 mm 2 mps 666 mmHg 78%
    03:00 +10°C° 0 mm 2 mps 666 mmHg 77%
    04:00 +9°C° 0 mm 2 mps 666 mmHg 77%
    05:00 +12°C° 0.1 mm 2 mps 666 mmHg 73%
    06:00 +13°C° 0.1 mm 2 mps 667 mmHg 70%
    07:00 +15°C° 0.1 mm 2 mps 667 mmHg 66%
    08:00 +16°C° 0.1 mm 2 mps 667 mmHg 64%
    09:00 +17°C° 0.1 mm 2 mps 668 mmHg 61%
    10:00 +19°C° 0.1 mm 2 mps 668 mmHg 59%
    11:00 +19°C° 0.3 mm 2 mps 668 mmHg 59%
    12:00 +19°C° 0.3 mm 2 mps 668 mmHg 60%
    13:00 +19°C° 0.3 mm 2 mps 668 mmHg 60%
    14:00 +19°C° 0.5 mm 2 mps 668 mmHg 61%
    15:00 +19°C° 0.5 mm 2 mps 668 mmHg 61%
    16:00 +19°C° 0.5 mm 2 mps 667 mmHg 62%
    17:00 +18°C° 0.3 mm 2 mps 667 mmHg 67%
    18:00 +16°C° 0.3 mm 1 mps 667 mmHg 73%
    19:00 +15°C° 0.3 mm 1 mps 666 mmHg 78%
    20:00 +14°C° 0 mm 1 mps 666 mmHg 80%
    21:00 +13°C° 0 mm 1 mps 666 mmHg 81%
    22:00 +13°C° 0 mm 1 mps 666 mmHg 83%
    23:00 +12°C° 0 mm 1 mps 666 mmHg 84%

    Tomorrow, 25 June, Monday

    Time Temperature Precipitation Wind Pressure Humidity
    00:00 +12°C° 0 mm 1 mps 666 mmHg 85%
    01:00 +12°C° 0 mm 2 mps 666 mmHg 85%
    02:00 +12°C° 0 mm 2 mps 666 mmHg 86%
    03:00 +12°C° 0 mm 2 mps 665 mmHg 86%
    04:00 +10°C° 0 mm 2 mps 665 mmHg 87%
    05:00 +13°C° 0 mm 2 mps 666 mmHg 84%
    06:00 +14°C° 0 mm 2 mps 666 mmHg 81%
    07:00 +15°C° 0 mm 2 mps 666 mmHg 78%
    08:00 +16°C° 0.4 mm 2 mps 667 mmHg 74%
    09:00 +17°C° 0.4 mm 2 mps 667 mmHg 70%
    10:00 +18°C° 0.4 mm 2 mps 667 mmHg 66%
    11:00 +18°C° 1.5 mm 2 mps 667 mmHg 67%
    12:00 +18°C° 1.5 mm 2 mps 667 mmHg 68%
    13:00 +18°C° 1.5 mm 2 mps 667 mmHg 69%
    14:00 +18°C° 1.9 mm 2 mps 667 mmHg 72%
    15:00 +17°C° 1.9 mm 2 mps 666 mmHg 76%
    16:00 +16°C° 1.9 mm 1 mps 666 mmHg 80%
    17:00 +15°C° 0.7 mm 1 mps 666 mmHg 83%
    18:00 +15°C° 0.7 mm 1 mps 666 mmHg 85%
    19:00 +14°C° 0.7 mm 1 mps 666 mmHg 87%
    20:00 +14°C° 0.6 mm 2 mps 666 mmHg 89%
    21:00 +13°C° 0.6 mm 2 mps 666 mmHg 90%
    22:00 +13°C° 0.6 mm 2 mps 666 mmHg 91%
    23:00 +13°C° 0.5 mm 2 mps 665 mmHg 91%

    Day after tomorrow, 26 June, Tuesday

    Time Temperature Precipitation Wind Pressure Humidity
    00:00 +12°C° 0.5 mm 2 mps 665 mmHg 91%
    01:00 +12°C° 0.5 mm 2 mps 665 mmHg 91%
    02:00 +12°C° 0.3 mm 2 mps 664 mmHg 91%
    03:00 +12°C° 0.3 mm 2 mps 664 mmHg 91%
    04:00 +10°C° 0.3 mm 2 mps 664 mmHg 91%
    05:00 +12°C° 0.4 mm 2 mps 664 mmHg 89%
    06:00 +13°C° 0.4 mm 2 mps 664 mmHg 87%
    07:00 +13°C° 0.4 mm 2 mps 664 mmHg 85%
    08:00 +14°C° 0.3 mm 2 mps 664 mmHg 80%
    09:00 +15°C° 0.3 mm 2 mps 665 mmHg 75%
    10:00 +16°C° 0.3 mm 2 mps 665 mmHg 70%
    11:00 +16°C° 1 mm 2 mps 665 mmHg 72%
    12:00 +16°C° 1 mm 2 mps 664 mmHg 74%
    13:00 +16°C° 1 mm 1 mps 664 mmHg 76%
    14:00 +15°C° 2.2 mm 1 mps 664 mmHg 80%
    15:00 +15°C° 2.2 mm 1 mps 663 mmHg 84%
    16:00 +14°C° 2.2 mm 1 mps 663 mmHg 89%
    17:00 +14°C° 1.1 mm 1 mps 663 mmHg 89%
    18:00 +14°C° 1.1 mm 1 mps 663 mmHg 90%
    19:00 +13°C° 1.1 mm 1 mps 663 mmHg 91%
    20:00 +13°C° 1.6 mm 1 mps 663 mmHg 91%
    21:00 +13°C° 1.6 mm 1 mps 663 mmHg 92%
    22:00 +13°C° 1.6 mm 1 mps 663 mmHg 92%
    23:00 +13°C° 0.6 mm 1 mps 663 mmHg 92%

    27 June, Wednesday

    Time Temperature Precipitation Wind Pressure Humidity
    00:00 +13°C° 0.6 mm 1 mps 663 mmHg 92%
    01:00 +13°C° 0.6 mm 1 mps 662 mmHg 92%
    02:00 +13°C° 0.4 mm 1 mps 662 mmHg 92%
    03:00 +12°C° 0.4 mm 1 mps 662 mmHg 92%
    04:00 +12°C° 0.4 mm 2 mps 662 mmHg 92%
    05:00 +13°C° 0.2 mm 2 mps 662 mmHg 90%
    06:00 +14°C° 0.2 mm 2 mps 662 mmHg 88%
    07:00 +14°C° 0.2 mm 2 mps 663 mmHg 86%
    08:00 +15°C° 0.3 mm 2 mps 663 mmHg 82%
    09:00 +16°C° 0.3 mm 2 mps 663 mmHg 78%
    10:00 +17°C° 0.3 mm 2 mps 664 mmHg 75%
    11:00 +17°C° 0.8 mm 2 mps 664 mmHg 74%
    12:00 +17°C° 0.8 mm 2 mps 664 mmHg 73%
    13:00 +18°C° 0.8 mm 2 mps 664 mmHg 73%
    14:00 +17°C° 0.8 mm 2 mps 663 mmHg 74%
    15:00 +17°C° 0.8 mm 2 mps 663 mmHg 75%
    16:00 +17°C° 0.8 mm 2 mps 663 mmHg 77%
    17:00 +16°C° 0.5 mm 2 mps 663 mmHg 80%
    18:00 +15°C° 0.5 mm 2 mps 663 mmHg 83%
    19:00 +14°C° 0.5 mm 1 mps 663 mmHg 86%
    20:00 +14°C° 0.2 mm 1 mps 663 mmHg 87%
    21:00 +13°C° 0.2 mm 2 mps 663 mmHg 88%
    22:00 +13°C° 0.2 mm 2 mps 663 mmHg 89%
    23:00 +12°C° 0.1 mm 2 mps 663 mmHg 90%

    28 June, Thursday

    Time Temperature Precipitation Wind Pressure Humidity
    00:00 +12°C° 0.1 mm 1 mps 663 mmHg 90%
    01:00 +12°C° 0.1 mm 1 mps 663 mmHg 90%
    02:00 +12°C° 0 mm 1 mps 663 mmHg 90%
    03:00 +11°C° 0 mm 1 mps 663 mmHg 90%
    04:00 +11°C° 0 mm 1 mps 662 mmHg 89%
    05:00 +12°C° 0 mm 1 mps 663 mmHg 85%
    06:00 +14°C° 0 mm 1 mps 664 mmHg 80%
    07:00 +16°C° 0 mm 1 mps 664 mmHg 76%
    08:00 +18°C° 0 mm 1 mps 665 mmHg 70%
    09:00 +20°C° 0 mm 1 mps 665 mmHg 64%
    10:00 +21°C° 0 mm 1 mps 666 mmHg 58%
    11:00 +22°C° 0 mm 1 mps 666 mmHg 57%
    12:00 +22°C° 0 mm 1 mps 666 mmHg 56%
    13:00 +21°C° 0 mm 2 mps 666 mmHg 54%
    14:00 +21°C° 0.2 mm 2 mps 666 mmHg 57%
    15:00 +21°C° 0.2 mm 2 mps 666 mmHg 59%
    16:00 +21°C° 0.2 mm 2 mps 666 mmHg 61%
    17:00 +19°C° 0.2 mm 2 mps 665 mmHg 67%
    18:00 +18°C° 0.2 mm 2 mps 665 mmHg 73%
    19:00 +16°C° 0.2 mm 1 mps 665 mmHg 80%
    20:00 +15°C° 0 mm 1 mps 665 mmHg 82%
    21:00 +14°C° 0 mm 1 mps 665 mmHg 84%
    22:00 +14°C° 0 mm 1 mps 665 mmHg 86%
    23:00 +13°C° 0 mm 1 mps 665 mmHg 86%

    29 June, Friday

    Time Temperature Precipitation Wind Pressure Humidity
    00:00 +13°C° 0 mm 1 mps 665 mmHg 86%
    01:00 +13°C° 0 mm 1 mps 665 mmHg 86%
    02:00 +12°C° 0 mm 1 mps 665 mmHg 86%
    03:00 +12°C° 0 mm 1 mps 665 mmHg 85%
    04:00 +12°C° 0 mm 1 mps 665 mmHg 85%
    05:00 +14°C° 0 mm 1 mps 665 mmHg 78%
    06:00 +15°C° 0 mm 1 mps 666 mmHg 72%
    07:00 +18°C° 0 mm 1 mps 666 mmHg 66%
    08:00 +20°C° 0 mm 1 mps 667 mmHg 59%
    09:00 +21°C° 0 mm 1 mps 667 mmHg 53%
    10:00 +21°C° 0 mm 2 mps 667 mmHg 46%
    11:00 +23°C° 0 mm 2 mps 667 mmHg 46%
    12:00 +24°C° 0 mm 2 mps 667 mmHg 46%
    13:00 +24°C° 0 mm 3 mps 667 mmHg 45%
    14:00 +24°C° 0 mm 3 mps 667 mmHg 48%
    15:00 +22°C° 0 mm 3 mps 667 mmHg 50%
    16:00 +22°C° 0 mm 3 mps 667 mmHg 53%
    17:00 +20°C° 0 mm 2 mps 667 mmHg 60%
    18:00 +19°C° 0 mm 2 mps 667 mmHg 67%
    19:00 +18°C° 0 mm 1 mps 666 mmHg 75%
    20:00 +16°C° 0 mm 1 mps 666 mmHg 77%
    21:00 +15°C° 0 mm 1 mps 666 mmHg 79%
    22:00 +14°C° 0 mm 1 mps 666 mmHg 81%
    23:00 +14°C° 0 mm 1 mps 666 mmHg 80%
    Show more